Theta_e
338 337 337 334 333 335 336 335 335 336 333 332 332 334 335 336 336 336 335 334 334 333 331 329 328 326 326 325 325 325 323 325 327 331 334 334 335 335 335 335 335 335 335 334 334 335 334 333 332 332 332 333 332 331 331 331 332 331 331 331 330 330 329 329 330 330 331 331 331 331 331 332 332 333 335 337 338 339 340 341 342 342 341 342 342
338 337 337 334 332 334 336 335 334 335 333 333 333 334 335 336 336 335 334 333 333 332 331 329 327 327 326 326 325 323 323 327 329 329 332 333 332 334 335 334 334 334 334 333 333 333 332 331 331 331 332 332 331 331 331 331 331 331 330 330 330 329 329 329 329 329 330 331 332 332 333 332 329 328 330 333 334 336 337 338 339 341 342 342 340
336 334 332 332 331 332 335 335 334 334 332 334 334 336 336 337 336 334 334 333 332 331 330 329 328 327 326 325 323 322 322 328 330 328 330 331 331 334 334 334 334 334 333 333 331 330 330 331 331 331 332 331 331 331 330 330 331 330 330 330 329 329 329 328 329 329 330 330 331 332 332 330 325 324 327 331 333 333 335 336 337 338 340 341 341
334 332 331 332 332 330 332 335 335 334 334 335 335 337 337 337 335 334 333 332 331 331 330 329 327 326 325 324 323 322 322 326 330 329 329 329 331 333 333 333 333 332 333 333 332 330 330 332 332 332 332 331 331 331 329 329 330 330 329 329 329 329 328 328 328 328 329 329 330 330 331 328 322 321 326 330 332 333 334 336 337 337 338 340 341
334 333 333 334 334 329 331 334 335 335 335 336 336 336 336 336 335 333 332 331 331 331 330 328 326 325 324 323 323 322 320 323 328 328 328 329 331 332 331 332 331 331 333 333 333 332 332 332 332 331 331 330 330 330 329 329 329 329 328 327 326 326 327 327 327 327 328 328 329 329 329 327 325 324 327 329 330 331 332 334 336 337 338 338 339
334 334 334 335 336 331 332 336 335 336 335 336 336 336 336 336 334 332 331 331 331 330 329 327 326 325 324 323 322 321 320 321 325 327 328 329 330 331 330 331 331 331 332 332 332 332 331 331 331 331 331 331 331 330 329 328 329 329 328 327 326 325 325 326 326 326 327 327 328 327 326 324 325 326 327 328 329 330 332 334 335 336 336 337 337
332 334 335 336 336 333 335 336 336 336 336 336 336 335 335 335 334 332 331 331 330 329 328 327 325 324 323 322 321 320 320 320 322 325 327 329 330 330 330 330 330 331 331 331 331 331 330 330 330 330 330 330 330 329 328 328 328 327 328 327 327 327 326 326 326 325 324 325 325 325 325 323 323 324 325 326 327 327 330 333 334 335 335 336 336
333 335 337 337 336 334 335 335 336 336 336 336 335 335 334 334 333 331 331 330 330 329 327 326 324 323 322 322 322 321 321 321 321 323 325 328 328 329 329 329 330 330 330 329 330 330 330 330 330 329 329 329 329 328 328 327 327 326 326 326 326 326 325 325 325 325 323 323 322 322 323 322 322 323 323 324 326 327 332 337 338 339 338 337 338
335 337 337 337 335 334 334 335 336 336 336 336 335 334 333 333 331 330 330 330 329 327 325 324 322 322 322 322 322 321 321 322 323 324 324 325 326 328 328 328 329 328 328 328 328 329 329 329 328 328 327 327 326 326 326 325 325 324 324 324 324 324 324 324 324 324 322 321 320 320 321 321 321 321 322 325 330 334 338 340 340 340 340 339 339
337 337 337 337 335 333 334 334 335 336 335 335 334 333 332 331 330 330 329 328 326 324 322 322 321 321 321 321 322 321 321 323 324 324 323 324 325 327 327 327 328 327 327 326 326 326 326 326 325 325 324 324 323 324 324 323 323 323 323 323 323 323 323 323 324 323 322 321 320 319 319 320 321 321 326 332 336 338 338 338 336 337 338 338 338
337 337 338 337 334 333 334 334 335 335 335 334 333 331 330 330 330 329 327 324 321 321 321 321 321 321 321 320 320 319 321 323 323 323 324 324 325 326 326 326 326 325 324 322 322 323 324 323 322 322 322 322 322 323 323 322 323 322 323 323 323 323 323 323 323 323 322 321 320 319 318 321 322 324 329 331 334 335 335 337 336 337 337 337 337
336 336 337 337 334 332 334 334 334 334 334 332 331 330 330 329 328 326 322 320 320 321 321 321 321 321 319 318 318 319 320 322 322 323 324 324 325 325 325 325 324 322 321 321 321 322 322 322 322 322 322 322 323 322 322 322 322 322 322 322 322 322 322 322 322 321 321 321 320 320 320 320 322 329 330 326 327 327 327 330 333 334 334 334 334
334 335 335 335 331 330 332 333 333 333 332 331 330 330 329 327 325 321 318 319 320 321 320 320 320 319 317 317 317 318 319 320 321 322 322 323 324 323 323 323 322 321 321 321 322 322 323 322 322 322 322 322 322 321 321 321 321 321 322 321 321 321 321 321 320 320 320 320 320 320 320 320 322 328 327 323 323 322 322 323 325 327 327 328 328
332 332 333 335 332 330 330 331 332 331 330 329 329 328 327 324 320 318 318 319 320 320 320 320 318 317 317 317 317 317 317 318 318 319 318 319 320 320 321 322 321 321 321 321 321 322 322 321 321 321 321 321 320 319 319 320 321 321 321 321 320 321 321 320 319 319 319 319 320 320 320 320 322 325 324 322 321 322 324 323 323 324 324 325 325
330 329 330 332 333 331 329 329 329 328 327 328 327 326 324 320 318 318 319 320 320 320 320 319 318 318 318 317 317 317 318 317 317 319 317 317 318 318 320 321 321 321 321 321 321 321 321 320 320 320 320 320 318 316 317 318 319 321 321 321 320 319 320 319 319 319 319 319 320 320 319 320 323 324 322 321 320 321 323 324 324 323 323 323 324
328 328 328 329 332 332 330 328 327 327 327 328 326 325 323 319 318 319 319 319 319 320 319 319 319 319 318 317 318 318 319 319 318 320 319 318 319 319 321 321 321 321 321 321 320 320 320 319 318 319 319 318 316 316 316 315 317 319 320 319 319 319 319 319 319 319 319 319 319 319 319 319 321 322 323 323 323 322 321 323 324 323 323 322 322
325 325 326 326 328 329 329 328 328 329 329 329 326 325 323 318 318 320 319 319 320 320 320 320 320 319 319 318 319 320 320 320 320 320 320 320 320 319 320 320 320 320 320 320 320 320 320 318 317 317 317 316 317 317 317 316 317 319 318 319 320 321 320 319 319 319 318 318 319 320 319 319 320 323 324 323 323 324 323 323 324 323 323 322 322
323 324 325 326 326 326 327 326 327 328 329 328 327 326 322 318 320 321 320 321 321 321 321 320 320 320 319 319 320 321 321 321 321 320 320 321 321 320 320 320 320 320 320 319 319 319 320 320 318 316 317 316 317 318 319 318 318 320 321 321 321 321 320 318 319 318 318 318 318 319 319 319 321 323 322 321 322 323 323 324 324 323 323 322 322
322 324 325 325 325 325 326 325 325 326 326 326 325 325 323 320 321 322 321 322 322 321 321 320 319 320 320 320 321 321 322 322 321 320 320 322 322 321 321 321 320 319 319 319 319 319 320 321 318 316 318 317 317 318 320 319 320 322 322 322 321 319 318 317 317 317 317 317 318 318 318 319 321 321 321 321 321 321 322 322 322 323 323 323 322
322 322 324 325 324 324 325 325 324 324 323 323 323 324 323 322 323 323 322 323 322 321 321 320 319 320 321 321 321 321 321 322 322 321 321 322 321 321 321 320 320 319 319 320 319 318 320 319 317 318 320 318 318 319 319 319 319 320 319 319 318 316 317 316 316 316 316 316 316 316 318 319 320 320 320 320 321 321 321 321 321 322 322 322 322
322 321 322 324 325 323 324 324 323 323 323 323 322 323 324 323 324 323 323 323 322 321 321 320 318 319 321 321 321 320 320 321 321 321 321 321 321 320 320 319 320 320 320 320 318 318 318 317 318 320 320 319 319 319 318 317 317 317 316 317 316 315 315 315 315 315 315 316 316 316 317 318 319 319 319 320 320 321 321 321 321 321 321 322 322
321 322 321 322 324 323 323 323 323 324 324 324 323 324 324 323 324 323 323 323 321 321 321 319 318 319 320 320 320 320 320 320 321 321 321 321 321 321 320 319 320 319 319 319 317 317 317 318 320 319 319 319 318 317 316 316 316 316 316 315 315 315 315 315 315 315 315 315 316 316 317 317 318 318 319 320 320 320 320 321 321 321 322 322 322
320 322 322 321 322 323 323 323 323 324 325 324 323 323 323 324 323 321 322 321 320 321 319 318 319 320 320 320 320 320 321 321 322 321 321 321 320 320 320 319 319 319 318 318 317 317 318 318 319 318 318 318 317 316 316 315 315 315 315 315 315 315 315 315 315 315 315 316 316 316 317 317 317 318 318 319 319 320 320 320 321 321 322 322 322
320 322 323 322 322 324 325 324 323 323 324 324 323 323 323 325 323 320 320 317 319 320 318 318 320 320 319 319 320 320 321 321 321 321 321 320 320 320 319 319 318 318 318 317 317 317 317 318 318 318 317 317 317 316 315 315 315 314 314 315 315 314 315 315 315 315 315 315 315 316 317 317 317 318 318 319 319 320 320 320 321 321 322 322 322
319 321 322 323 322 323 324 325 324 323 323 324 325 324 323 324 323 322 320 316 319 320 318 319 320 320 319 320 321 321 321 321 320 321 321 320 320 319 319 318 317 317 317 317 317 317 317 318 318 318 317 317 316 316 315 315 315 314 315 315 315 314 315 315 315 315 315 315 315 316 317 317 317 318 318 319 319 320 320 321 320 321 321 321 322
319 320 321 322 322 323 324 324 324 324 323 324 325 324 323 323 322 323 321 317 319 319 318 320 319 320 320 320 321 321 321 321 320 320 320 320 320 319 318 318 317 317 316 317 317 317 317 318 318 317 317 316 316 316 315 315 315 315 315 315 314 314 314 314 314 314 314 314 315 316 316 317 317 317 318 318 320 320 321 321 320 320 321 321 322
320 320 321 322 322 323 324 324 324 324 324 324 324 324 323 323 323 323 321 318 319 319 319 320 319 320 320 320 321 321 320 320 320 320 320 319 319 318 318 317 316 316 316 317 317 317 317 317 318 317 316 316 316 316 315 314 314 315 315 314 314 314 314 314 314 314 314 314 314 315 316 316 316 316 317 318 319 320 319 320 320 320 320 321 322
321 321 322 322 322 323 324 325 325 324 324 324 324 323 322 323 322 323 321 319 319 319 319 319 319 320 319 320 321 320 319 320 320 320 319 319 319 318 317 317 316 316 317 317 317 317 317 317 317 317 317 316 316 315 315 314 315 315 315 314 314 314 314 314 314 314 313 313 313 314 315 315 316 316 316 317 318 318 318 319 320 320 319 320 321
321 322 322 321 322 324 324 324 324 324 324 324 324 322 322 322 322 321 320 319 319 319 318 318 319 320 319 319 320 319 319 320 320 319 319 318 318 317 317 316 316 317 316 316 316 317 317 317 317 317 317 316 315 315 315 315 315 314 314 314 314 314 313 313 313 313 313 313 313 313 314 314 315 315 315 316 316 317 317 318 319 320 320 320 320
320 321 321 321 323 324 325 325 324 323 324 324 324 322 322 323 322 321 319 318 318 318 318 319 319 320 320 319 320 320 319 320 319 318 319 318 317 317 316 316 316 316 316 316 317 317 317 317 318 318 318 317 315 315 315 315 315 315 315 315 315 314 313 313 313 313 312 312 312 312 313 314 314 315 315 315 316 316 316 317 318 319 320 320 320
320 320 321 321 323 324 324 325 323 323 324 324 324 322 321 323 322 320 317 317 318 317 318 319 319 320 320 318 319 320 320 319 319 318 318 317 317 316 316 316 316 316 316 317 317 317 317 317 318 318 318 317 316 316 315 315 315 315 315 315 315 314 313 313 312 312 312 312 312 312 312 313 313 314 314 314 315 316 316 317 318 318 320 321 320
320 320 321 322 323 323 323 324 324 323 323 323 323 322 320 322 321 318 316 317 318 317 318 319 319 319 319 318 319 320 319 319 318 318 317 317 316 316 315 315 316 316 316 316 317 317 317 317 318 318 318 317 316 316 316 316 316 315 315 315 315 314 313 313 313 312 313 312 312 312 312 312 312 313 314 314 315 315 316 317 317 318 319 320 320
320 320 322 323 323 323 323 324 323 323 323 322 323 321 320 322 319 317 317 317 318 317 318 319 318 319 318 319 320 320 319 318 318 317 317 317 316 315 315 315 315 315 316 316 316 316 317 318 318 317 317 317 317 316 316 316 316 316 315 315 315 314 313 313 313 313 312 312 312 311 311 311 312 313 313 314 314 315 315 316 317 318 318 319 319
320 321 322 323 323 324 324 324 323 324 323 322 322 321 321 321 318 317 317 318 319 318 318 319 318 318 318 319 320 319 318 318 317 317 317 316 315 315 315 315 315 315 316 316 316 316 317 317 317 317 317 317 317 316 316 316 315 316 315 315 315 314 313 313 313 313 313 312 312 311 311 311 312 312 313 313 314 314 315 315 317 317 318 318 319
320 322 323 324 323 323 325 324 323 323 323 322 322 321 321 320 317 317 318 318 318 318 318 318 318 318 318 319 319 319 318 318 317 316 316 316 315 315 315 315 315 314 315 315 316 316 316 317 317 317 316 316 316 316 315 315 315 315 315 315 315 314 314 313 313 313 313 312 312 311 311 312 312 312 313 313 313 314 315 315 316 317 317 317 318
320 322 323 325 324 324 324 324 323 323 323 322 322 321 321 320 317 317 318 318 318 318 318 318 318 318 318 319 319 318 318 317 316 316 316 316 315 315 315 315 314 314 314 315 315 316 316 316 316 316 316 316 316 315 315 315 315 315 315 315 315 314 314 313 313 313 313 312 312 311 311 312 312 312 313 313 313 314 315 316 317 317 317 318 319
320 321 323 324 324 324 323 323 323 322 322 322 321 321 321 320 318 318 319 318 317 317 318 318 318 319 318 318 319 318 317 317 316 316 316 316 316 315 315 315 315 314 314 314 315 315 315 315 316 316 316 315 315 314 315 315 315 315 315 316 315 314 313 313 313 313 313 312 312 311 312 312 313 313 313 313 314 314 315 316 318 318 318 319 320
320 321 323 323 324 324 323 323 324 323 322 322 322 321 322 320 319 319 319 318 317 317 318 319 318 319 318 318 319 318 317 316 316 316 316 316 316 316 315 315 315 314 314 314 314 314 314 315 315 315 315 315 314 314 314 315 315 314 315 316 315 313 313 313 313 313 313 312 312 312 312 313 313 313 313 314 314 314 314 315 317 318 319 320 321
321 321 322 323 323 324 324 323 323 322 322 322 321 320 321 320 319 320 318 317 318 317 318 318 318 317 318 318 318 318 316 316 315 315 315 316 317 316 315 315 315 314 314 314 314 314 314 314 314 315 314 314 313 314 314 314 314 314 314 315 314 313 313 313 312 313 312 312 312 312 312 312 313 313 313 313 314 314 314 314 316 316 318 320 321
321 321 322 322 323 323 324 323 323 321 320 322 321 319 320 320 320 320 318 317 318 318 317 318 317 316 317 318 318 317 316 315 315 315 315 316 316 316 316 315 314 314 315 314 314 314 314 314 314 314 314 313 313 313 313 313 314 314 313 314 313 313 313 313 312 312 312 312 312 312 312 312 312 312 313 313 313 313 312 313 315 316 317 319 320
321 321 322 322 322 323 323 322 323 321 319 321 321 318 318 319 320 319 318 317 317 318 317 317 318 316 316 318 318 317 316 315 315 316 315 316 316 316 316 315 314 315 315 314 314 314 313 314 314 313 313 313 313 313 313 313 313 314 314 313 313 313 313 313 313 312 312 312 312 312 312 312 312 312 312 312 313 312 312 312 314 315 316 317 318
321 321 322 323 323 323 322 321 322 321 318 319 321 319 318 318 318 318 318 317 316 317 317 317 317 317 316 317 317 317 316 315 315 315 316 316 316 316 317 316 315 315 315 314 314 314 313 314 314 313 313 314 314 314 313 313 313 314 314 314 313 313 313 313 313 312 312 312 312 312 313 313 312 312 312 312 312 312 312 312 313 314 314 315 317
323 321 321 323 323 322 322 321 320 320 318 319 320 320 319 319 317 317 317 317 317 317 317 316 316 317 316 316 317 316 316 315 314 315 315 316 316 316 316 316 315 315 315 314 314 314 314 314 315 314 314 314 315 314 314 313 313 314 314 314 313 313 313 313 313 313 312 312 312 312 313 313 312 312 312 312 311 311 311 312 313 313 314 314 315
324 320 320 321 321 321 322 321 320 319 318 319 320 319 319 320 319 318 317 317 318 318 317 316 316 317 316 316 316 316 316 315 314 314 315 316 316 315 315 316 315 315 315 314 314 314 314 315 315 315 315 315 315 315 315 314 314 314 315 314 314 314 314 314 314 314 313 313 313 313 313 313 313 313 312 312 311 310 310 312 312 312 313 313 314
324 320 319 320 321 321 321 321 319 319 319 319 320 320 319 320 320 319 319 318 318 317 317 317 316 316 316 315 315 315 315 315 315 314 315 315 316 315 315 315 315 315 315 315 314 314 314 315 315 315 315 315 315 315 315 314 314 314 315 315 314 314 314 314 314 314 313 313 313 313 313 313 313 313 313 311 310 310 310 311 312 312 312 313 313
325 320 319 320 321 321 322 321 320 319 319 319 319 320 320 319 319 319 319 319 318 317 317 317 316 316 316 316 315 315 315 315 315 314 315 315 315 315 315 315 315 315 315 315 315 315 315 315 315 315 315 315 315 315 315 315 315 315 315 314 314 314 314 314 315 315 314 313 314 314 314 314 313 313 313 311 310 310 310 311 311 311 312 312 312
325 320 318 320 320 320 321 321 319 319 320 319 318 319 319 319 319 319 318 318 318 317 317 316 316 316 316 316 316 315 315 315 315 314 314 315 316 315 315 315 315 315 315 315 315 315 314 314 315 315 315 315 315 315 315 315 315 316 315 314 314 315 314 314 316 315 314 314 314 314 314 314 313 313 312 312 311 310 310 310 311 311 311 311 312
325 321 320 319 320 320 320 320 319 318 318 319 318 318 319 319 319 319 318 318 318 317 317 316 316 316 316 316 316 315 315 315 315 314 314 315 316 316 315 315 315 315 315 314 314 315 314 314 314 315 315 315 315 315 315 315 315 315 315 315 315 315 315 315 316 315 315 315 315 315 314 313 313 313 312 312 311 311 310 310 310 310 311 311 311
326 323 320 319 319 320 319 320 320 319 318 319 318 318 319 318 318 319 318 317 317 316 316 316 315 316 316 316 316 315 315 315 315 315 315 315 315 316 316 315 315 315 315 314 315 315 314 314 314 315 315 315 315 315 315 315 315 314 315 315 315 315 315 315 316 315 315 315 315 316 316 314 314 313 313 312 312 312 311 310 310 310 310 310 311
326 322 319 318 319 320 320 321 320 319 319 319 318 318 318 318 317 318 318 317 316 315 316 316 315 315 316 316 315 315 315 315 315 315 315 315 316 316 317 316 315 315 315 315 315 315 315 314 315 315 314 314 314 315 314 314 314 314 314 315 315 315 315 315 315 315 315 315 315 316 316 315 314 314 313 313 313 312 312 310 309 310 310 310 310
326 322 320 319 319 319 320 320 319 318 318 318 319 319 318 317 317 317 316 316 316 316 316 316 316 315 315 315 315 315 315 315 315 315 315 315 316 316 317 316 316 316 315 315 315 315 315 315 315 314 314 314 314 314 314 314 314 313 313 315 315 315 315 315 315 315 315 315 315 316 316 315 314 314 314 314 313 313 312 311 310 309 309 310 310
Wind_Speed
7 7 6 7 8 8 8 8 8 8 8 9 9 9 9 9 9 10 10 10 11 11 12 13 13 15 15 16 16 18 18 17 14 12 12 11 11 11 11 11 11 12 12 13 12 13 14 13 14 15 15 14 13 14 14 13 11 12 12 12 13 14 15 15 16 16 16 17 18 18 19 20 20 20 19 18 18 18 17 17 16 16 16 15 16
6 7 6 6 7 8 8 8 7 7 7 8 8 7 8 8 9 9 9 10 11 11 12 13 13 14 15 16 17 19 19 16 14 12 11 11 11 11 11 12 12 12 12 13 12 13 14 15 15 14 15 14 13 13 15 12 10 13 13 13 15 15 16 16 16 16 17 17 18 18 19 20 22 23 22 21 20 19 18 18 18 17 16 15 16
6 6 6 6 6 7 7 7 7 6 7 7 6 7 7 8 8 9 9 10 11 11 12 12 13 14 15 17 18 19 18 16 14 12 11 10 11 11 11 12 12 12 13 14 14 14 14 14 13 12 14 15 13 12 13 10 10 13 11 13 16 15 14 15 16 16 17 18 18 19 20 22 24 24 23 23 21 21 19 18 18 18 18 17 16
6 7 7 7 6 6 7 6 6 6 6 6 6 7 7 7 8 9 10 10 11 11 12 12 13 15 16 18 18 18 18 16 14 13 11 11 11 12 12 12 13 13 13 14 13 12 12 12 12 12 13 14 14 13 12 11 11 12 12 11 13 14 14 14 15 16 17 18 19 20 22 24 25 25 23 23 23 23 22 21 19 18 19 18 17
6 7 8 8 6 5 6 5 6 6 6 5 6 7 7 7 8 9 10 10 11 11 12 13 14 15 16 17 17 17 17 15 14 12 12 12 12 12 12 12 13 13 13 13 13 13 12 12 13 13 14 15 15 14 14 13 13 14 15 14 14 17 17 17 17 18 19 19 20 21 21 22 23 24 23 23 25 25 25 24 21 19 19 19 19
6 5 6 7 5 5 5 5 6 6 6 6 7 7 8 7 7 9 9 10 10 11 12 13 14 15 16 17 17 17 16 15 13 12 12 12 12 12 12 12 12 12 13 13 13 13 13 13 14 14 15 16 16 16 15 14 14 15 16 16 16 19 20 20 20 20 21 22 23 22 22 22 21 23 23 24 25 26 27 26 23 22 21 20 20
5 4 5 5 5 5 6 6 6 6 7 7 7 7 7 7 7 8 9 9 9 10 11 12 14 15 16 16 16 17 16 15 13 12 12 12 12 12 11 12 12 12 13 13 13 14 14 14 14 14 15 16 17 17 17 16 16 17 17 18 18 19 20 21 21 21 22 23 23 23 23 22 22 23 24 25 24 26 28 28 27 24 22 19 19
4 4 6 5 4 5 6 6 6 6 6 6 7 6 7 7 8 8 8 8 9 10 11 12 14 15 16 16 16 16 16 14 13 11 11 11 12 12 11 12 13 13 14 14 14 14 14 14 15 15 16 17 17 17 18 18 18 18 19 19 19 20 20 21 21 21 23 23 23 23 22 22 22 23 24 26 27 28 27 25 23 20 19 18 17
5 4 5 5 4 4 5 5 5 5 6 6 7 8 8 8 8 8 8 8 9 10 12 13 14 15 16 16 16 16 15 14 13 12 11 11 11 12 11 12 13 13 14 14 15 15 14 15 16 16 17 17 17 17 17 18 18 19 20 20 19 20 20 20 20 21 21 20 21 21 21 21 21 22 23 22 20 19 18 16 15 13 13 13 14
6 5 5 6 5 4 4 4 5 5 6 7 8 8 8 8 8 8 8 9 10 11 13 14 15 15 16 16 16 15 14 13 13 12 11 11 11 12 12 12 13 14 14 15 15 15 15 16 16 17 17 17 17 17 17 18 19 19 19 19 19 19 19 19 20 20 19 19 19 19 21 20 21 21 17 10 4 6 8 11 11 9 9 10 11
7 6 6 6 5 5 5 5 6 7 7 8 8 8 8 8 8 8 8 9 11 13 13 14 15 15 16 16 15 14 13 13 13 12 11 11 12 12 12 13 14 15 15 15 15 15 16 16 17 17 17 17 17 18 18 19 19 19 19 19 19 19 19 20 20 20 19 19 19 20 20 19 20 16 8 2 3 3 3 6 7 8 7 8 10
7 8 7 7 6 6 6 7 8 8 8 9 9 8 7 7 8 8 9 12 13 13 13 14 15 16 15 15 14 13 13 13 13 13 12 12 13 13 13 14 14 15 16 16 16 16 16 17 17 18 18 18 18 19 19 19 19 19 19 19 19 19 19 20 20 20 19 19 19 19 19 19 18 8 2 3 3 2 1 1 2 4 5 7 8
6 7 5 5 6 6 7 8 8 9 9 9 8 7 7 7 8 9 12 13 12 13 14 15 15 15 15 15 14 14 13 13 13 13 12 12 13 13 14 14 15 16 16 16 16 16 17 18 18 18 18 18 19 19 19 19 18 18 18 18 18 18 19 19 19 19 18 19 19 19 18 19 17 9 6 7 7 7 6 5 4 4 6 8 10
7 6 4 3 6 7 6 8 8 8 8 6 5 5 6 7 9 12 13 12 12 13 14 15 15 15 15 15 15 14 14 14 14 13 13 13 12 13 14 15 16 16 16 16 16 17 17 18 18 18 18 17 18 19 18 17 17 16 17 17 17 16 17 19 18 18 18 18 19 18 18 18 16 12 12 12 12 10 9 9 8 7 8 9 11
7 6 5 4 5 7 7 7 6 5 5 3 3 4 5 8 11 12 11 12 13 14 15 15 15 15 16 16 15 14 14 14 14 13 13 13 12 13 14 15 16 16 16 17 17 17 17 17 18 19 17 17 19 20 19 18 16 16 15 16 15 15 17 19 19 18 18 17 17 17 17 16 15 15 15 14 14 12 10 11 11 11 11 11 12
7 6 6 4 3 6 9 8 4 4 5 3 4 5 6 9 11 11 11 13 14 14 15 15 15 16 16 16 15 14 13 13 14 13 12 13 12 12 13 16 17 17 16 17 18 19 16 18 21 21 18 18 22 22 24 23 19 16 16 15 14 17 20 20 20 19 18 17 16 16 15 15 16 16 16 13 12 12 12 12 13 14 15 15 15
7 7 6 5 4 4 6 5 3 3 5 4 5 7 8 10 10 12 15 14 14 14 15 15 15 15 15 15 15 14 13 11 13 13 12 12 12 12 15 17 18 17 17 16 18 19 16 18 24 25 20 20 22 21 25 28 22 17 16 16 16 20 22 21 20 19 19 19 16 16 16 15 15 15 16 15 15 15 14 14 15 16 17 18 18
8 8 7 7 6 5 5 5 3 3 4 4 6 8 11 13 11 14 18 14 14 15 14 15 15 14 14 15 14 14 13 10 12 13 13 13 13 14 14 16 19 18 16 13 18 22 18 17 23 27 23 21 23 21 25 28 21 17 16 16 17 21 22 20 19 18 20 18 15 16 17 17 17 19 19 17 17 16 16 16 16 17 18 20 20
9 8 8 8 7 6 6 6 5 4 5 4 6 8 12 14 10 13 16 13 13 14 14 15 15 14 14 15 14 14 14 10 11 14 15 13 13 14 12 15 20 19 18 13 18 25 20 17 22 27 24 21 24 23 23 20 14 13 14 15 17 19 19 17 16 18 21 20 19 20 19 21 22 23 23 22 20 18 19 19 20 20 20 21 21
11 10 8 8 7 7 6 6 5 5 5 6 6 7 10 13 10 12 14 12 13 13 13 15 15 15 15 15 13 14 15 11 11 15 16 14 13 15 14 17 18 18 20 15 18 24 19 19 23 24 20 19 23 22 20 18 14 13 15 15 17 17 16 16 17 18 20 20 21 22 21 23 24 24 25 25 23 23 22 22 22 22 22 22 21
12 12 9 7 6 7 7 7 6 6 5 5 7 6 8 12 10 11 12 10 13 13 13 15 16 16 15 15 13 14 17 12 11 15 17 16 15 17 18 18 16 17 20 17 19 21 19 20 21 19 18 20 22 19 18 18 17 17 17 17 17 15 16 17 18 19 18 18 19 21 22 23 24 26 26 26 25 24 24 23 22 21 22 22 21
7 11 11 8 7 7 7 7 7 7 5 5 6 6 7 10 9 10 11 10 12 13 12 13 15 17 15 15 14 14 16 13 13 16 17 16 16 17 18 18 18 19 19 18 19 19 20 22 22 22 21 20 20 19 19 19 18 18 19 18 17 19 20 20 20 21 19 18 19 19 20 21 22 24 25 25 25 25 25 24 23 22 22 22 22
6 8 10 8 8 7 7 7 7 8 7 5 6 7 8 9 9 10 11 11 12 12 12 13 14 16 15 14 15 14 15 14 14 17 17 16 17 17 18 18 18 19 19 19 20 21 22 24 25 24 21 19 19 19 19 20 19 19 19 18 19 22 22 21 20 21 20 20 20 19 19 20 21 22 23 25 25 25 26 25 24 23 22 22 22
6 7 9 8 9 7 7 7 7 8 8 7 6 7 9 9 10 11 12 11 12 12 12 13 13 15 16 15 15 15 16 15 15 17 17 17 17 18 19 18 18 19 20 20 21 22 22 22 23 21 19 20 19 19 19 19 18 17 18 20 21 22 20 20 19 19 19 19 20 20 20 21 22 23 24 25 25 25 26 25 24 24 23 22 22
6 7 8 8 9 9 8 7 7 7 9 8 6 7 9 10 10 11 12 11 12 12 12 13 12 13 17 16 15 16 16 15 17 18 18 18 18 18 19 19 20 19 20 21 21 21 21 21 21 20 21 21 19 19 19 17 17 17 18 20 20 20 19 19 19 19 19 20 21 21 22 23 23 24 25 25 25 25 25 25 25 24 23 22 21
7 7 7 8 9 9 9 8 7 7 7 8 7 7 8 9 10 10 12 12 12 12 11 12 12 13 16 16 15 17 16 16 18 18 18 18 18 19 20 20 21 21 21 21 20 21 21 21 20 20 22 21 20 19 18 17 17 17 18 18 18 19 20 20 20 20 21 21 22 23 24 25 25 26 26 25 25 25 25 25 25 25 24 23 22
7 7 6 7 8 8 8 8 7 7 7 7 7 8 9 9 9 9 11 12 11 11 12 12 12 13 16 16 16 17 17 17 18 19 18 18 19 20 20 20 21 21 21 21 21 22 21 20 19 20 20 20 19 18 17 17 17 17 16 17 18 19 20 20 20 21 22 24 25 25 26 28 28 28 27 26 25 26 26 24 24 24 23 23 22
6 6 6 6 7 7 7 8 7 7 7 7 8 9 9 9 9 9 10 11 10 10 11 11 12 13 16 17 15 18 18 17 18 19 19 18 19 19 19 21 21 21 22 23 23 22 21 20 19 19 19 18 17 17 17 16 16 15 15 16 18 19 19 20 21 22 23 24 25 25 26 28 30 30 29 28 28 27 27 25 24 24 23 23 23
6 6 5 6 6 6 6 7 7 7 7 7 8 8 9 9 10 10 9 10 10 9 9 11 12 12 16 18 16 18 18 17 19 19 18 18 19 20 20 21 22 23 24 23 22 21 21 20 19 19 18 18 17 17 16 15 15 14 14 16 17 18 19 20 21 22 22 22 23 24 24 27 29 30 30 30 29 28 27 26 25 24 23 23 23
6 5 5 6 5 5 6 6 7 7 7 7 8 8 8 9 9 10 9 10 11 10 9 11 12 12 15 18 16 17 17 17 19 18 18 18 19 21 21 21 22 24 23 21 21 20 20 20 20 19 19 19 18 17 17 16 15 14 14 15 16 17 18 19 20 21 21 22 22 24 24 26 27 29 30 29 28 28 27 27 26 23 23 23 21
6 6 5 5 5 5 5 6 6 7 8 8 8 8 8 9 9 9 9 9 10 10 10 11 12 12 13 17 17 16 17 18 18 18 18 19 20 20 20 22 23 22 21 20 21 20 19 20 20 20 20 20 19 18 18 18 17 15 14 14 15 16 16 18 19 20 21 22 23 25 26 26 27 28 30 29 27 27 27 27 26 23 22 22 21
7 6 5 5 4 5 5 6 6 7 8 8 8 9 9 9 9 9 9 9 9 10 10 10 12 12 13 16 16 16 17 17 18 18 18 20 20 20 21 22 23 22 21 20 20 21 19 19 20 20 20 20 19 18 18 18 17 16 15 14 14 14 14 16 18 20 20 21 23 26 27 27 28 28 28 28 27 27 26 26 26 24 22 22 21
6 6 5 5 4 4 5 6 7 7 7 8 9 9 10 10 9 9 9 8 8 10 10 10 12 12 13 16 16 16 18 18 19 19 18 19 19 19 21 22 22 22 22 21 20 20 20 19 20 20 21 21 20 19 19 18 17 17 15 13 14 14 14 15 18 19 19 21 23 25 28 29 29 28 27 27 27 26 25 26 27 26 25 22 21
5 5 5 5 5 4 4 5 6 7 7 8 8 9 9 9 10 9 9 9 8 9 10 10 12 12 13 16 16 16 18 18 18 19 18 18 19 20 22 21 22 22 21 21 20 20 20 20 20 20 20 20 19 19 20 19 17 17 15 12 13 14 13 15 17 19 19 21 23 26 28 29 30 28 27 26 25 25 25 26 27 27 26 23 21
5 4 5 5 6 5 5 5 6 7 7 7 8 8 9 8 9 9 9 10 9 8 10 11 12 13 13 15 16 16 17 18 18 19 18 18 20 21 21 20 20 21 21 20 20 20 19 20 19 19 20 18 18 19 20 20 18 17 15 12 12 13 14 15 17 19 19 20 23 27 27 28 30 29 27 26 24 24 25 26 26 25 24 22 21
5 4 4 5 5 5 6 6 6 6 6 7 7 7 8 8 8 8 8 9 9 9 10 11 12 12 13 14 15 16 16 17 17 18 19 19 19 20 20 19 20 22 21 20 20 20 20 20 19 18 20 18 17 20 21 21 18 17 16 13 12 13 14 17 17 18 19 20 24 26 27 29 31 31 29 27 25 26 26 25 23 23 21 20 18
5 5 4 4 5 5 6 5 5 6 6 6 6 6 6 6 6 7 7 7 9 10 9 11 12 12 13 13 15 15 16 17 17 18 19 19 18 19 21 20 21 22 20 20 20 21 21 22 21 19 19 18 19 21 22 21 18 17 15 12 13 13 14 17 16 17 20 21 22 25 28 30 31 33 31 29 29 30 30 26 21 20 18 16 15
6 5 5 5 5 4 5 5 5 5 5 5 6 6 3 4 5 5 7 7 7 10 10 10 11 12 12 13 14 14 16 16 17 19 19 19 19 20 22 21 21 22 19 20 21 22 23 23 23 21 19 19 20 21 22 21 18 17 15 12 13 14 15 17 17 17 19 21 22 25 29 31 32 33 31 31 31 32 32 28 23 20 17 14 13
5 5 5 5 5 5 5 5 6 6 6 6 7 7 5 5 5 5 6 7 7 9 10 10 11 12 12 12 13 14 15 15 15 18 18 18 19 19 20 21 21 21 19 19 22 23 24 24 23 21 19 19 20 22 23 22 20 19 17 13 12 13 15 16 17 18 19 20 23 25 29 31 32 33 32 32 32 33 33 30 27 24 19 14 12
5 5 5 5 5 5 5 6 6 7 8 8 8 9 9 7 7 5 6 8 7 8 10 10 10 12 12 11 12 13 13 14 14 17 18 17 18 17 18 20 20 21 20 20 22 23 23 23 23 21 19 18 20 23 24 23 21 21 20 16 12 10 14 17 17 19 19 20 23 23 26 30 32 34 34 32 32 34 36 31 29 28 24 17 13
6 5 5 6 6 6 6 6 6 7 8 9 9 9 9 8 8 8 7 8 8 8 10 10 9 11 12 11 12 12 12 15 14 16 18 18 18 17 17 19 19 21 22 21 21 21 21 21 22 23 21 18 19 23 25 22 19 18 17 17 14 9 14 19 18 19 19 19 22 22 24 30 33 35 35 34 32 34 37 33 31 31 29 25 19
6 5 5 5 5 5 6 6 6 7 8 8 8 8 8 8 8 8 8 7 7 8 8 9 7 9 11 11 12 12 12 14 15 16 18 18 18 18 16 17 19 21 22 21 20 20 20 20 21 23 23 21 18 20 24 20 15 13 10 11 12 8 12 19 19 18 17 18 22 23 25 29 31 33 35 35 35 35 36 35 34 34 33 31 26
6 6 6 4 5 5 5 5 6 6 7 7 7 7 6 5 6 6 7 6 6 5 5 8 7 7 11 11 10 12 13 13 14 16 17 16 17 17 16 15 17 19 20 20 20 20 20 21 21 21 21 22 18 18 22 19 16 15 9 5 6 6 8 15 17 16 16 18 22 24 24 27 28 30 33 34 36 38 39 38 37 37 36 34 31
6 5 5 4 5 5 4 5 5 5 6 7 7 6 5 4 3 2 3 4 5 6 5 8 8 7 11 11 9 11 12 13 14 14 15 14 14 16 17 15 15 17 17 18 20 20 19 20 22 21 20 19 18 19 20 19 19 14 7 3 4 4 5 9 11 14 16 16 20 23 22 25 27 28 31 32 35 38 39 39 39 39 39 38 36
7 5 5 4 5 5 4 4 5 5 6 6 6 6 6 6 5 4 3 3 6 7 8 8 8 9 10 9 9 10 11 13 14 13 14 14 14 14 16 16 15 16 16 16 17 18 18 18 20 20 20 18 18 19 19 20 19 14 8 4 2 2 4 7 7 10 15 14 16 23 22 22 25 25 27 32 34 36 38 39 40 40 41 41 40
7 6 6 5 5 5 4 4 5 4 5 6 6 5 6 7 7 7 6 6 7 7 6 7 8 9 9 7 7 9 10 12 13 13 14 15 14 14 15 16 15 15 16 16 15 16 18 18 18 19 19 19 19 18 18 21 21 18 16 11 5 3 3 6 5 6 12 13 14 21 21 20 23 23 25 29 32 35 37 38 40 41 42 43 43
7 7 7 6 6 6 5 5 5 4 4 5 6 6 6 6 6 6 6 6 6 4 4 5 5 6 7 9 7 7 9 11 12 13 14 14 15 15 15 15 16 16 16 16 16 16 17 18 19 19 20 21 20 18 17 20 20 19 19 18 15 11 6 6 4 3 8 10 13 18 19 19 21 23 24 27 30 34 36 38 40 41 42 45 45
8 7 7 7 6 6 5 5 5 5 5 5 6 6 6 6 6 5 5 5 5 4 4 4 5 5 6 8 10 8 9 10 11 13 14 13 14 15 16 15 16 16 16 17 17 17 17 19 19 20 21 22 21 19 19 19 18 18 18 20 19 17 14 10 6 5 4 6 10 14 17 19 19 21 22 25 27 31 35 38 39 40 41 46 47
8 7 8 7 7 6 6 6 5 5 5 5 5 5 5 5 6 6 5 5 5 6 5 3 5 5 5 5 8 8 9 9 10 12 13 13 14 15 16 16 16 16 16 16 18 18 18 18 19 20 21 22 21 20 21 19 17 18 17 17 18 18 17 15 12 10 5 4 6 7 12 15 15 18 22 23 25 28 33 36 37 39 42 46 46
8 7 8 8 7 6 6 6 6 5 5 4 5 5 5 5 6 6 6 6 5 5 5 3 4 5 5 6 5 6 8 9 9 10 12 13 13 14 16 16 16 16 16 16 16 17 17 17 18 19 19 21 22 20 20 20 18 18 17 14 15 16 13 12 14 14 8 5 6 6 8 10 9 13 18 21 24 26 29 34 36 38 41 44 43
9 8 8 8 7 7 6 6 6 5 5 4 4 4 5 5 5 5 6 7 6 5 5 5 5 6 6 7 6 6 7 8 9 9 10 12 12 13 15 15 16 16 16 16 15 16 17 17 18 19 18 19 21 20 20 22 19 20 21 14 13 16 12 9 13 15 9 5 6 6 7 10 7 9 14 16 21 24 26 30 34 35 37 40 41
Wind_Direction
66 72 68 67 74 72 66 63 61 56 52 50 48 47 47 48 51 55 54 49 44 39 33 27 21 17 14 10 6 1 357 354 351 347 346 346 345 345 346 342 338 335 331 334 333 335 334 332 335 334 331 325 325 327 327 323 327 336 335 338 338 334 332 329 327 324 320 316 312 308 304 299 293 289 284 281 278 275 271 268 267 264 262 261 261
82 81 73 67 76 74 68 63 61 55 50 49 48 47 45 46 55 58 53 47 41 37 32 26 20 16 12 8 1 357 356 356 352 345 341 341 341 339 341 339 336 335 330 329 327 330 327 324 323 329 339 330 320 319 321 322 319 323 324 326 328 327 328 327 324 321 319 317 313 310 306 300 293 289 285 282 279 277 274 269 266 261 257 256 259
95 86 82 70 70 72 69 64 62 56 52 50 49 50 50 54 61 60 51 45 39 35 31 24 18 13 7 1 357 356 358 357 355 350 345 342 343 344 344 345 344 341 334 328 321 320 321 325 326 328 341 338 335 327 322 332 326 317 318 323 325 322 324 329 325 320 317 314 312 310 305 299 292 291 289 284 281 276 272 268 265 259 254 250 252
88 71 75 72 62 64 62 63 65 59 57 52 53 55 55 62 63 54 46 42 37 33 29 21 12 7 1 358 357 357 357 355 355 355 354 349 350 353 350 350 350 346 342 340 338 332 331 339 341 336 339 339 344 341 329 332 334 324 318 316 319 320 323 327 326 322 318 314 310 308 304 298 293 291 288 281 277 273 268 264 260 258 255 249 247
75 53 52 61 62 59 59 63 67 61 62 58 58 59 57 62 57 47 41 38 34 31 24 14 7 3 0 359 358 356 355 353 353 354 356 354 354 356 353 351 351 348 347 350 350 347 345 348 347 339 336 336 336 337 331 330 335 332 324 314 307 308 313 317 318 316 313 311 308 305 301 297 293 288 281 275 271 267 263 259 255 253 255 250 246
82 63 51 67 71 71 75 74 74 67 65 63 62 59 55 55 51 44 38 36 31 25 17 10 6 3 0 357 355 353 352 351 349 351 352 353 354 357 355 353 351 349 350 351 349 345 342 342 343 338 334 336 336 333 330 327 330 332 329 324 316 309 311 314 313 310 308 306 304 301 296 291 286 280 275 275 272 266 259 252 249 250 252 251 246
100 92 76 81 81 86 88 75 71 68 68 63 58 54 46 48 54 47 37 35 27 20 14 9 5 360 357 353 352 351 350 349 346 345 347 350 353 355 355 353 352 352 352 349 346 344 339 337 336 335 334 334 334 331 327 325 325 325 324 323 322 317 315 314 313 310 306 303 299 296 294 289 283 279 276 273 270 267 258 246 244 248 247 248 247
122 101 83 80 85 94 94 83 76 70 68 59 51 50 49 58 60 49 40 35 27 21 13 6 360 356 353 351 350 349 348 348 347 343 343 346 348 352 352 352 353 354 353 348 347 345 342 339 336 335 335 333 331 330 327 326 324 321 320 319 317 315 314 312 312 310 307 302 296 292 291 288 283 282 279 276 272 263 251 240 240 241 241 243 243
105 95 85 83 93 100 102 95 84 70 62 60 59 61 63 65 59 47 41 36 27 17 7 0 356 354 352 350 349 349 350 351 352 350 347 346 347 350 350 353 353 353 352 350 349 346 344 341 338 336 334 332 330 329 327 325 324 321 319 318 316 314 313 313 312 311 307 301 296 292 290 289 287 285 285 286 279 258 238 233 240 242 244 246 245
90 87 77 80 89 95 98 83 72 61 55 66 70 67 64 60 56 48 41 31 16 5 359 356 354 352 351 350 350 352 356 357 358 358 356 355 353 355 355 356 356 355 352 348 346 345 344 341 338 335 333 332 331 330 329 328 325 323 322 320 318 317 316 315 314 313 308 301 297 293 291 290 290 287 290 299 274 236 232 236 243 246 250 252 253
94 90 81 82 90 90 87 76 68 60 59 72 73 65 59 55 53 46 32 13 360 356 356 355 353 352 351 351 355 359 2 3 4 4 5 4 1 1 359 357 356 354 349 346 345 344 344 343 341 338 337 336 335 334 333 332 329 327 326 324 322 320 319 317 316 313 309 303 298 295 294 292 291 282 279 356 119 166 220 229 233 237 245 253 257
89 88 84 81 81 80 78 76 71 67 71 75 69 60 55 53 48 32 11 358 355 357 356 355 353 352 354 358 2 4 6 7 8 9 9 5 3 2 359 355 352 350 349 348 348 347 347 346 345 343 341 339 338 336 332 331 329 326 324 324 324 323 321 320 317 314 310 305 300 298 297 293 298 294 280 355 45 32 313 264 239 245 265 271 272
75 82 90 81 68 71 79 78 76 77 77 74 67 61 57 48 30 10 358 357 358 358 356 354 354 356 359 4 5 6 8 7 7 7 5 1 358 357 355 353 351 351 351 351 351 349 348 347 346 343 341 340 338 334 330 326 324 323 322 322 322 323 324 322 318 314 311 308 304 301 299 300 303 311 323 329 346 350 338 326 319 297 296 290 289
53 58 74 87 67 68 84 82 81 79 75 73 70 62 49 27 7 360 358 0 0 358 357 358 0 3 4 4 5 7 8 7 5 4 2 357 354 353 353 353 352 353 353 353 352 350 349 350 348 343 340 339 340 339 333 329 324 322 325 327 324 324 326 326 322 315 312 308 306 304 302 303 300 300 307 313 323 338 353 340 326 313 303 294 291
45 39 44 75 75 72 76 70 69 65 59 59 58 48 25 7 0 360 2 2 359 359 0 3 5 6 5 4 5 6 7 8 6 2 1 359 356 357 355 355 353 353 353 354 353 351 350 349 346 343 341 341 349 352 344 337 331 326 328 332 331 332 333 329 323 317 310 303 301 301 300 301 301 309 312 306 308 315 332 340 333 321 309 303 297
41 34 33 46 69 82 74 60 58 56 47 43 42 31 10 3 4 5 7 4 1 3 4 3 2 3 3 3 3 1 0 2 3 358 356 357 358 1 1 358 356 353 351 354 354 350 345 346 348 344 342 345 349 353 348 340 332 329 333 335 333 333 334 329 323 317 305 295 290 291 295 298 295 312 329 331 331 323 319 325 327 321 314 309 303
41 39 37 42 44 64 65 50 60 71 51 51 46 25 8 3 7 11 6 5 6 2 1 359 357 357 357 358 357 355 352 350 358 357 352 352 351 357 1 1 358 351 348 352 351 348 337 337 349 343 337 343 340 338 338 335 326 323 335 340 334 327 329 329 323 313 303 294 286 288 291 289 292 322 346 348 348 342 333 327 320 315 310 306 302
57 50 42 43 44 46 52 48 45 61 47 46 40 16 7 5 3 4 3 6 6 1 360 359 357 355 355 355 354 356 355 350 357 357 353 350 347 345 347 355 356 350 348 345 343 346 330 319 339 339 330 334 335 325 322 330 328 320 329 333 329 325 326 328 321 315 318 317 312 312 309 306 313 330 337 335 336 333 330 326 318 309 300 295 294
69 62 52 44 42 39 47 55 39 28 22 14 18 358 354 0 354 356 5 9 0 359 2 1 1 358 357 356 359 2 358 355 356 356 351 346 344 340 334 341 346 350 352 346 340 339 328 315 329 333 326 331 338 328 323 339 350 334 331 326 328 332 330 331 329 329 333 332 330 329 324 319 321 325 327 327 326 322 320 316 313 308 298 290 287
80 70 60 48 48 38 33 47 40 21 11 1 359 339 337 350 354 357 4 6 358 360 2 4 5 2 1 359 3 2 358 355 353 357 351 341 343 346 344 337 334 340 342 343 343 337 334 331 330 334 337 341 336 328 336 358 7 352 344 334 333 336 333 334 335 334 331 326 326 326 323 323 323 324 325 325 322 320 318 309 305 303 297 289 283
88 76 60 44 52 46 31 32 33 18 6 6 353 342 344 347 357 2 357 357 0 2 2 7 7 5 4 2 3 358 356 353 353 357 350 346 349 351 350 344 342 340 336 341 345 341 343 344 347 355 357 350 337 337 353 357 354 350 347 340 340 345 344 344 342 338 333 327 326 324 322 324 323 322 322 322 319 316 312 306 302 298 294 289 282
65 70 57 41 42 45 37 26 23 8 352 1 355 359 1 352 359 1 356 360 3 2 4 8 8 7 4 2 2 356 355 353 356 356 350 352 351 352 352 351 354 347 347 351 344 347 353 355 6 9 1 355 348 352 358 354 354 350 345 346 354 0 356 351 348 343 338 334 331 325 320 319 317 316 315 314 312 308 305 303 300 296 292 288 284
32 58 55 41 35 37 39 29 20 7 358 5 7 12 1 356 9 5 0 3 3 4 7 7 5 4 2 1 1 358 356 355 359 356 353 354 352 356 353 352 357 349 356 357 347 355 358 358 7 6 1 354 349 355 359 357 357 350 348 356 3 2 355 350 345 339 336 333 330 325 319 316 312 311 311 308 306 304 302 300 298 295 293 289 286
33 52 54 45 38 32 30 27 23 10 4 6 12 17 3 1 14 8 3 6 5 7 8 5 2 360 1 2 1 0 357 358 3 356 355 357 355 359 354 355 357 351 358 358 356 1 357 358 2 359 352 343 345 358 360 354 349 349 356 1 1 356 349 345 339 333 331 330 327 322 318 314 311 314 314 310 308 305 303 301 298 294 292 290 287
40 46 49 45 39 33 24 18 20 15 11 9 7 14 10 10 13 5 6 11 9 8 8 4 1 359 2 3 1 360 355 360 4 357 359 358 357 359 357 358 355 357 2 357 2 7 0 358 357 352 345 342 351 358 354 350 353 359 1 359 357 352 346 343 339 337 335 333 330 325 321 317 316 319 317 314 312 309 306 303 299 295 292 289 286
46 42 42 40 37 32 21 14 17 15 17 12 4 11 16 12 8 6 8 9 8 10 7 3 5 4 5 4 2 1 357 3 5 360 0 358 2 3 359 360 356 3 4 357 6 8 2 356 352 351 348 349 353 352 350 354 1 2 357 356 355 352 348 346 344 344 344 342 339 332 327 324 323 323 320 317 315 312 308 303 300 296 292 289 285
44 39 42 41 37 30 18 19 22 15 16 10 5 15 19 10 6 9 9 7 7 9 5 4 10 10 8 7 4 4 0 5 6 0 360 1 9 6 0 2 359 5 4 3 11 8 1 354 350 350 348 349 347 346 352 356 359 355 353 356 356 352 348 348 349 351 351 349 344 337 331 328 328 326 323 321 318 315 309 304 302 297 293 289 284
43 34 43 46 38 31 20 20 22 21 18 11 15 19 17 11 6 11 12 10 8 4 5 7 13 14 10 7 8 6 4 8 7 1 0 4 11 6 4 5 1 7 10 6 6 2 357 351 348 347 345 345 344 346 353 355 352 350 352 354 354 352 350 354 356 356 353 348 342 337 333 330 329 327 325 323 320 318 312 308 307 302 297 291 284
46 32 40 50 40 30 26 22 20 24 18 12 20 19 14 10 5 11 17 13 4 359 10 15 13 16 10 8 11 8 9 12 8 4 2 6 12 9 8 7 4 9 10 4 0 356 352 348 346 346 344 344 345 348 351 350 346 347 351 350 352 354 356 0 359 355 351 344 339 334 330 327 326 326 324 322 320 318 313 310 309 305 300 294 286
49 38 41 45 40 30 28 29 23 19 14 13 19 16 11 9 5 10 20 14 3 5 20 20 14 15 10 10 13 12 13 13 10 6 1 9 15 11 9 9 10 10 7 2 358 354 350 349 348 346 344 343 345 348 350 348 344 344 347 349 353 356 2 4 358 353 348 342 338 334 330 328 327 325 323 321 319 318 314 311 309 307 303 297 289
58 42 44 40 36 33 30 31 29 19 11 13 16 17 10 7 9 10 18 13 7 16 23 19 16 16 13 14 16 17 18 15 13 7 3 15 17 11 11 13 14 11 6 0 356 354 353 352 351 346 342 342 345 348 349 346 343 342 346 354 355 357 6 3 358 353 347 342 339 335 332 331 329 325 324 323 320 317 315 312 309 308 305 300 294
68 49 45 44 39 35 31 27 29 22 17 19 17 18 10 5 13 13 15 12 12 24 21 17 20 17 17 21 20 19 19 17 14 9 8 19 18 12 14 15 15 11 6 1 357 356 355 354 353 348 344 344 346 348 347 344 346 346 349 357 353 359 5 356 356 353 346 345 342 339 337 334 331 327 325 324 321 317 315 313 310 309 308 304 297
70 59 49 46 45 38 31 27 25 24 22 23 17 17 13 7 15 18 16 11 18 29 19 19 24 19 22 25 22 20 20 19 17 13 13 19 18 17 17 17 17 10 5 2 360 359 357 358 357 352 350 348 348 349 348 347 352 349 349 357 352 359 2 351 353 350 348 350 344 343 342 338 336 332 327 322 319 317 315 314 313 311 310 306 300
61 57 53 47 48 38 31 33 26 27 28 26 20 16 12 9 18 22 17 11 19 30 20 21 26 22 25 26 23 22 22 21 20 15 15 19 19 20 20 19 17 10 5 4 3 3 2 0 358 355 352 349 349 350 350 351 353 349 348 356 353 354 357 351 352 350 350 351 344 343 343 343 341 336 331 326 319 318 318 316 313 311 309 308 304
61 57 60 53 52 41 34 41 31 30 31 26 20 14 11 13 21 23 19 15 20 30 25 25 27 24 25 26 24 24 24 23 22 18 16 21 21 19 17 17 19 13 8 8 6 7 5 0 359 356 353 354 353 352 356 354 354 358 357 0 0 356 358 354 352 352 352 351 347 346 346 346 345 342 340 336 328 323 322 319 315 311 308 306 303
61 59 63 58 59 49 40 43 34 31 27 22 16 11 13 18 27 27 22 24 25 26 30 29 28 27 25 27 26 25 26 23 23 21 19 24 23 16 12 16 23 18 12 14 10 10 6 360 358 357 358 359 356 359 2 356 355 6 5 4 6 6 4 358 353 354 356 353 350 350 351 350 352 353 354 350 343 338 333 328 321 315 310 306 303
66 60 60 57 57 53 46 39 31 29 22 17 7 1 13 24 27 23 18 28 35 28 29 33 29 29 27 28 28 26 27 24 23 26 25 24 21 16 14 16 22 18 17 20 16 14 10 2 1 1 5 5 2 6 4 357 358 3 4 7 12 14 8 1 357 355 358 358 354 355 356 356 358 0 359 356 354 351 346 342 335 325 316 311 307
75 66 58 55 54 54 50 37 26 18 5 359 351 346 12 40 23 22 23 29 46 36 28 35 33 28 28 29 28 27 28 25 25 29 28 22 17 20 18 16 19 16 15 25 24 17 13 8 5 4 11 13 10 11 6 359 1 2 4 9 15 19 13 6 6 2 2 2 359 360 1 2 4 2 360 0 360 358 355 356 356 345 331 321 315
81 72 65 57 55 54 50 40 27 13 0 1 2 359 18 44 25 28 36 31 43 46 33 32 38 31 26 28 26 28 28 23 28 32 29 21 17 22 20 16 17 11 11 28 29 20 17 15 7 2 13 20 17 17 10 3 4 5 9 17 24 26 20 14 14 11 8 6 3 2 5 7 7 4 4 4 4 4 2 3 6 1 353 342 331
84 77 70 59 56 54 49 42 31 22 15 18 22 17 17 24 23 25 41 39 35 48 44 31 36 32 24 28 24 26 27 21 30 37 31 23 16 20 22 19 17 8 10 28 32 24 19 17 8 1 10 21 22 20 12 6 6 3 7 21 33 34 26 21 16 14 13 10 7 6 9 11 10 9 8 7 8 8 6 6 7 8 9 6 353
85 81 78 67 62 56 51 45 33 32 29 26 28 28 25 17 15 13 21 40 36 40 45 29 32 33 25 29 24 22 25 21 30 40 35 26 17 18 23 24 16 6 12 25 29 27 21 18 15 7 7 15 21 21 11 6 8 1 1 9 12 30 34 22 13 13 13 10 11 9 11 14 12 12 10 7 9 8 6 7 9 12 14 15 11
92 88 85 79 76 66 58 52 38 39 38 32 31 34 36 26 20 13 7 35 51 41 41 27 25 38 32 30 25 20 21 22 29 37 35 27 18 15 19 26 20 11 16 20 21 26 23 19 19 12 7 5 12 19 12 7 7 357 354 358 354 7 25 14 5 7 10 9 12 10 10 14 13 13 12 8 9 8 6 10 14 14 16 18 18
108 102 98 90 84 75 65 61 48 46 43 34 35 30 28 28 30 31 18 33 52 39 48 35 18 44 46 31 24 23 18 19 26 33 33 26 21 15 12 23 25 19 20 17 13 18 20 17 13 9 7 1 360 10 10 10 10 359 353 355 348 341 359 3 353 352 4 8 11 11 10 14 15 14 13 10 12 10 7 13 18 17 18 19 20
114 105 108 101 92 84 74 74 60 54 49 37 38 29 22 21 360 10 32 45 46 23 36 37 14 37 49 34 23 24 19 15 21 32 34 26 24 20 14 19 27 26 23 17 12 10 13 13 9 4 5 360 352 357 3 9 13 8 360 335 327 336 350 353 338 339 356 5 9 9 7 10 13 15 16 15 18 15 10 13 18 17 20 22 22
108 104 116 113 109 103 90 88 75 63 55 38 37 34 33 33 7 5 29 47 52 35 28 25 10 22 36 35 30 25 21 16 15 29 37 26 22 25 22 19 21 27 25 19 12 7 8 10 7 2 1 358 349 349 356 1 6 12 16 4 324 352 349 337 329 334 347 354 4 7 6 8 10 14 18 19 21 19 13 13 17 18 21 23 24
116 120 125 122 120 115 105 99 88 73 61 42 38 40 44 40 31 33 28 29 47 46 37 22 8 20 21 15 31 32 25 19 13 24 37 30 21 25 28 21 16 20 21 16 10 9 9 7 5 2 1 0 353 350 354 357 0 4 11 17 358 331 307 330 343 331 337 346 358 5 9 11 12 17 21 22 21 19 17 16 18 19 22 24 25
131 130 129 132 127 122 113 104 95 79 69 53 45 49 54 45 38 44 31 33 44 41 63 44 2 28 26 352 6 49 39 21 14 20 34 31 20 23 29 24 17 15 15 12 6 10 12 8 7 7 6 5 359 353 354 357 360 359 5 10 357 346 345 343 354 331 329 342 352 1 11 13 15 20 21 22 22 20 18 19 20 20 23 24 26
139 137 137 139 132 127 118 111 105 88 76 64 58 55 56 50 43 46 34 36 35 12 53 56 351 22 55 2 356 33 42 26 16 16 28 31 20 20 25 25 20 13 13 11 6 10 15 11 10 11 11 8 4 2 360 359 360 357 1 5 357 353 355 347 351 358 327 327 343 355 5 8 15 21 23 24 24 22 21 22 22 21 24 26 27
145 143 143 144 138 133 125 118 113 99 87 73 68 58 54 59 52 43 33 36 38 15 25 49 2 12 65 41 4 12 25 27 23 15 20 28 23 18 18 23 21 13 13 14 10 11 14 14 13 13 13 9 8 10 5 0 3 2 360 1 359 357 355 350 357 5 349 329 340 344 355 359 8 19 24 26 26 26 25 25 26 25 27 28 27
149 144 143 148 143 138 134 126 116 105 98 82 74 66 57 65 58 41 30 31 46 38 17 8 23 33 43 45 35 22 19 21 26 19 15 22 24 18 15 18 18 12 12 17 15 11 9 13 15 12 11 11 9 10 6 2 7 7 0 2 9 5 357 353 357 359 356 349 341 335 350 355 357 8 17 25 28 29 29 29 30 29 29 29 27
151 147 148 156 152 144 140 128 119 112 104 89 79 74 65 68 61 49 38 29 33 47 35 2 9 46 42 23 25 36 29 16 20 22 14 19 24 18 14 13 13 11 10 15 16 11 7 12 15 8 6 12 10 6 5 3 8 12 6 9 23 15 5 356 350 351 355 352 342 333 346 359 358 353 6 22 28 31 33 33 34 33 30 30 29